[[{"header":{"parameterUnit":"m.s-1","parameterCategory":1,"la1":30.2991,"la2":30.254,"lo1":-89.0895,"lo2":-89.0444,"dy":0.0017,"dx":0.0017,"nx":28,"ny":28,"refTime":"2025-06-08T03:00:00:Z","depth":0,"parameterNumber":2,"parameterNumberName":"U-component_of_WINDS"},"data":[0,0,0,0,0,0,0,0,0,0,0,0,0,0,0,0,0,0,0,0,0,0,0,0,0,0,0,0,0,0,0,0,0,0,0,0,0,0,0,0,0,0,0,0,0,0,0,0,0,0,0,0,0,0,0,0,0,0,0.8908,0.8909,0,0.9064,0.9066,0.9068,0.9141,0.9141,0.9141,0.9141,0.9308,0.9312,0.9317,0,0,0,0,0,0,0,0,0,0,0,0,0,0.8682,0.8686,0.8908,0.891,0.8911,0.9064,0.9066,0.9068,0.9141,0.9141,0.9141,0.9141,0.9307,0.9312,0.9317,0,0,0,0,0,0,0,0,0,0,0,0,0,0.8803,0.8687,0.8907,0.8966,0.8973,0.9063,0.9066,0.9069,0.9141,0.9141,0.9141,0.9141,0.9305,0.9311,0.9318,0.9363,0,0,0.9339,0.9342,0,0,0,0,0,0,0,0,0.8796,0.8812,0.8956,0.8962,0.897,0.9083,0.9048,0.9168,0.9142,0.9078,0.9141,0.9141,0.9234,0.9246,0.9276,0.9371,0.9378,0.934,0.9344,0.9347,0.9349,0,0,0,0,0,0,0,0.8788,0.8805,0.897,0.8958,0.8967,0.8988,0.9005,0.9071,0.9155,0.9083,0.9089,0.9106,0.9238,0.9269,0.9281,0.9381,0.9339,0.9345,0.935,0.9352,0.9526,0.9526,0,0,0,0,0,0,0.8769,0.8798,0.8965,0.8974,0.8881,0.8992,0.9011,0.9047,0.9154,0.917,0.9106,0.9109,0.9258,0.9273,0.9287,0.9349,0.9347,0.9353,0.9357,0.9525,0.9526,0.9526,0,0,0,0,0,0,0.8764,0.8783,0.8958,0.8888,0.8912,0.8996,0.9036,0.905,0.9082,0.9172,0.9188,0.9122,0.9258,0.9277,0.9344,0.9356,0.9356,0.9362,0.9525,0.9525,0.9526,0.9472,0,0,0,0,0,0,0.8757,0.8781,0.8796,0.8887,0.8915,0.901,0.9036,0.9053,0.9093,0.9098,0.9191,0.9207,0.926,0.9334,0.9351,0.9365,0.9368,0.9524,0.9525,0.9526,0.9473,0.9471,0.9469,0,0,0,0,0,0.8749,0.8775,0.8796,0.8816,0.8936,0.901,0.9027,0.9085,0.9093,0.9111,0.917,0.9204,0.9352,0.934,0.936,0.9376,0.9523,0.9525,0.9526,0.9474,0.9471,0.9469,0,0,0,0,0,0,0.8684,0.8788,0.8813,0.8869,0.893,0.9022,0.9046,0.908,0.9141,0.9144,0.9217,0.9237,0.9298,0.9345,0.9329,0.9428,0.9441,0.9446,0.9395,0.9393,0.9391,0.9379,0.9373,0,0,0,0,0,0.8676,0.8725,0.8815,0.8856,0.8886,0.8961,0.8995,0.9036,0.9103,0.9129,0.9193,0.9259,0.9321,0.936,0.9422,0.9481,0.9504,0.9503,0.9501,0.9498,0.9502,0.954,0.9542,0.953,0.953,0.953,0,0,0.8661,0.8724,0.875,0.8845,0.8897,0.8949,0.8982,0.9035,0.9076,0.9138,0.9205,0.9254,0.9333,0.9397,0.9429,0.9438,0.9511,0.95,0.9497,0.9503,0.9542,0.9543,0.9544,0.9531,0.9531,0.9531,0,0,0.8659,0.8711,0.8752,0.8804,0.8882,0.8933,0.8943,0.9031,0.9066,0.9134,0.9183,0.9234,0.9338,0.9393,0.9435,0.9459,0.9494,0.9478,0.9466,0.9503,0.9504,0.9505,0.9516,0.9518,0.9481,0.9481,0.9481,0,0.863,0.8708,0.8769,0.8821,0.8863,0.8921,0.8966,0.9014,0.9109,0.9138,0.9147,0.9281,0.9338,0.9417,0.9424,0.9455,0.9471,0.9467,0.9498,0.95,0.9502,0.9513,0.9517,0.9479,0.9479,0.9479,0.948,0,0.867,0.8724,0.8749,0.8838,0.8883,0.8931,0.9003,0.9042,0.9079,0.913,0.9201,0.9272,0.9351,0.9373,0.9411,0.9459,0.9463,0.9484,0.9498,0.95,0.9512,0.9516,0.9475,0.9476,0.9477,0.9478,0,0,0.8629,0.8754,0.8762,0.8805,0.8897,0.8942,0.8995,0.907,0.9103,0.9169,0.9216,0.9305,0.9326,0.9374,0.9419,0.9451,0.9469,0.9469,0.9472,0.9467,0.953,0.9513,0.9516,0.9493,0.9494,0.9495,0.9524,0,0.864,0.8734,0.8793,0.8864,0.8917,0.8976,0.9023,0.9087,0.9137,0.9192,0.9249,0.9311,0.9333,0.9363,0.9397,0.9459,0.9482,0.9458,0.9541,0.9543,0.9518,0.9522,0.9504,0.9527,0.9528,0.9529,0.953,0,0.8665,0.8728,0.8804,0.8894,0.8919,0.8959,0.9035,0.9086,0.9162,0.9197,0.9251,0.9297,0.9359,0.937,0.9458,0.944,0.9478,0.9514,0.9517,0.9527,0.9536,0.9533,0.9536,0.954,0.9537,0.9537,0.9536,0,0.8628,0.8733,0.8793,0.8827,0.8934,0.8961,0.9008,0.9083,0.9126,0.9194,0.9223,0.9298,0.9339,0.9398,0.9464,0.9465,0.9547,0.9562,0.958,0.9578,0.9594,0.9592,0.9603,0.9618,0.9618,0.9618,0.9618,0,0.8635,0.8679,0.8778,0.8814,0.8868,0.8938,0.899,0.9042,0.9109,0.916,0.9217,0.9264,0.9349,0.9407,0.946,0.9527,0.9545,0.9577,0.9591,0.9572,0.9568,0.9598,0.9598,0.9619,0.9619,0.9618,0.9618,0,0.8602,0.8669,0.8739,0.8835,0.886,0.8896,0.898,0.902,0.9074,0.9138,0.9157,0.9244,0.9316,0.9389,0.9487,0.9523,0.9589,0.9607,0.9562,0.957,0.9584,0.9582,0.9615,0.9624,0.9631,0.9631,0.9631,0,0.8601,0.8637,0.8737,0.8774,0.8819,0.8878,0.8923,0.8995,0.904,0.9131,0.9161,0.9237,0.9302,0.9416,0.9489,0.9565,0.9586,0.9593,0.9598,0.9579,0.9588,0.9585,0.959,0.959,0.959,0.9589,0.9589,0,0.8593,0.8626,0.8686,0.8759,0.8811,0.8873,0.8937,0.8965,0.905,0.9098,0.9172,0.9222,0.9323,0.9399,0.9485,0.9537,0.9578,0.9587,0.9596,0.9576,0.9549,0.9566,0.9556,0.9586,0.9586,0.9586,0.9586,0.9587,0.8577,0.8613,0.869,0.8757,0.8813,0.8872,0.8915,0.8976,0.9038,0.9124,0.9165,0.924,0.932,0.9439,0.949,0.9552,0.9563,0.9575,0.9578,0.958,0.9576,0.954,0.9568,0.9569,0.9569,0.9569,0.9569,0,0.8572,0.8626,0.8687,0.8775,0.8829,0.8863,0.8937,0.898,0.9045,0.9115,0.9178,0.9265,0.9341,0.9421,0.9502,0.9537,0.9558,0.9556,0.9554,0.9566,0.9561,0.9546,0.9537,0.9537,0.9537,0.9537,0.9537,0.9537,0.8576,0.8639,0.8682,0.8776,0.883,0.8902,0.8942,0.8999,0.9056,0.915,0.9213,0.9264,0.9341,0.9428,0.95,0.9523,0.955,0.9542,0.957,0.9564,0.9566,0.9568,0.9554,0.9548,0.9548,0.957,0.9571,0.9571]},{"header":{"parameterUnit":"m.s-1","parameterCategory":1,"la1":30.2991,"la2":30.254,"lo1":-89.0895,"lo2":-89.0444,"dy":0.0017,"dx":0.0017,"nx":28,"ny":28,"refTime":"2025-06-08T03:00:00:Z","depth":0,"parameterNumber":3,"parameterNumberName":"V-component_of_WINDS"},"data":[0,0,0,0,0,0,0,0,0,0,0,0,0,0,0,0,0,0,0,0,0,0,0,0,0,0,0,0,0,0,0,0,0,0,0,0,0,0,0,0,0,0,0,0,0,0,0,0,0,0,0,0,0,0,0,0,0,0,5.3431,5.3433,0,5.3592,5.3594,5.3596,5.3611,5.3609,5.3608,5.3606,5.3761,5.3766,5.3772,0,0,0,0,0,0,0,0,0,0,0,0,0,5.3128,5.3133,5.3431,5.3433,5.3435,5.3592,5.3594,5.3596,5.3611,5.3609,5.3607,5.3605,5.3759,5.3765,5.3772,0,0,0,0,0,0,0,0,0,0,0,0,0,5.3271,5.3135,5.3431,5.3462,5.3466,5.3591,5.3594,5.3597,5.3612,5.3609,5.3607,5.3604,5.3757,5.3765,5.3773,5.3875,0,0,5.3799,5.3803,0,0,0,0,0,0,0,0,5.3263,5.3282,5.3455,5.346,5.3465,5.3579,5.3544,5.369,5.3612,5.3556,5.3606,5.3603,5.3702,5.3714,5.375,5.3882,5.3889,5.38,5.3805,5.3809,5.3811,0,0,0,0,0,0,0,5.3253,5.3275,5.3494,5.3458,5.3464,5.3465,5.3482,5.3571,5.364,5.3561,5.3562,5.3582,5.3704,5.3741,5.3753,5.3891,5.38,5.3807,5.3812,5.3816,5.4116,5.4119,0,0,0,0,0,0,5.3238,5.3267,5.3489,5.3499,5.3356,5.3472,5.3492,5.3545,5.364,5.3652,5.3584,5.3582,5.3728,5.3743,5.3759,5.3885,5.3809,5.3816,5.3821,5.4113,5.4116,5.412,0,0,0,0,0,0,5.3232,5.3258,5.3483,5.3384,5.3412,5.348,5.3539,5.3549,5.3587,5.3657,5.3668,5.361,5.3727,5.3747,5.3847,5.3891,5.382,5.3828,5.411,5.4114,5.4118,5.4138,0,0,0,0,0,0,5.3223,5.3256,5.3297,5.3384,5.3418,5.3571,5.3542,5.3554,5.3603,5.3602,5.3685,5.3696,5.3726,5.3834,5.3855,5.3901,5.3835,5.4106,5.4112,5.4117,5.4134,5.4143,5.415,0,0,0,0,0,5.3212,5.3294,5.3299,5.3326,5.3471,5.3573,5.3592,5.3628,5.3607,5.3648,5.3692,5.3694,5.3883,5.3844,5.3868,5.3917,5.4103,5.411,5.4116,5.413,5.4141,5.415,0,0,0,0,0,0,5.3206,5.3306,5.3313,5.3426,5.3492,5.3576,5.3629,5.3638,5.3708,5.3704,5.3743,5.3761,5.386,5.3898,5.3854,5.4021,5.399,5.4002,5.3993,5.4004,5.4011,5.4,5.3842,0,0,0,0,0,5.3218,5.3296,5.3378,5.347,5.3503,5.356,5.3606,5.3629,5.3696,5.3723,5.3775,5.3839,5.3912,5.396,5.4031,5.4139,5.4157,5.4185,5.4193,5.4199,5.4209,5.4269,5.4282,5.4141,5.4141,5.4141,0,0,5.3243,5.3308,5.3354,5.347,5.3524,5.3601,5.3583,5.3665,5.3722,5.3734,5.3834,5.3874,5.3947,5.4052,5.41,5.4086,5.4252,5.4208,5.4212,5.4218,5.4277,5.429,5.4302,5.4145,5.4145,5.4144,0,0,5.3329,5.3386,5.347,5.3525,5.3607,5.3645,5.3665,5.3749,5.3778,5.3878,5.389,5.3956,5.4082,5.4134,5.4177,5.4284,5.4288,5.4306,5.4348,5.4407,5.4418,5.4428,5.4466,5.448,5.4315,5.4315,5.4315,0,5.3349,5.3469,5.351,5.3594,5.3644,5.3663,5.3746,5.3796,5.3896,5.3929,5.3913,5.4074,5.4124,5.4241,5.4268,5.4302,5.4324,5.4297,5.4414,5.4424,5.4434,5.4471,5.4485,5.4317,5.4317,5.4317,5.4316,0,5.349,5.3573,5.3629,5.3731,5.3787,5.3869,5.3921,5.3972,5.399,5.4029,5.413,5.4192,5.4277,5.4306,5.4322,5.4426,5.4416,5.4406,5.4376,5.4449,5.4484,5.4498,5.4319,5.4319,5.4318,5.4318,0,0,5.3575,5.37,5.372,5.3767,5.386,5.3923,5.4006,5.4093,5.4136,5.4204,5.4274,5.4381,5.4374,5.4423,5.4445,5.4496,5.4578,5.448,5.4483,5.4497,5.4696,5.4703,5.4719,5.4581,5.4583,5.4586,5.469,0,5.3671,5.3824,5.3864,5.3991,5.4068,5.4088,5.416,5.4223,5.4262,5.433,5.4371,5.4447,5.4431,5.4461,5.4512,5.4557,5.4618,5.455,5.4643,5.4646,5.4626,5.4737,5.4745,5.484,5.4704,5.4706,5.4708,0,5.3804,5.388,5.4017,5.4103,5.4136,5.42,5.4284,5.435,5.4421,5.4445,5.4501,5.4519,5.4604,5.457,5.4685,5.4638,5.4679,5.4706,5.4711,5.4721,5.4682,5.475,5.4871,5.4885,5.473,5.4728,5.4727,0,5.3853,5.3989,5.4089,5.4128,5.423,5.4275,5.4318,5.4388,5.4438,5.451,5.4543,5.4621,5.4664,5.4724,5.4762,5.4734,5.4875,5.4844,5.4896,5.4895,5.4925,5.4922,5.5054,5.495,5.495,5.495,5.4949,0,5.3957,5.404,5.4113,5.4175,5.4268,5.4311,5.4401,5.4445,5.4507,5.4575,5.4595,5.4658,5.4705,5.4773,5.4803,5.4895,5.4913,5.4934,5.4941,5.4933,5.4931,5.496,5.4955,5.4953,5.4953,5.4952,5.4951,0,5.4027,5.408,5.419,5.4279,5.4303,5.4368,5.4442,5.4501,5.4541,5.4627,5.4649,5.4711,5.4793,5.4837,5.4938,5.4958,5.5061,5.5064,5.5039,5.5042,5.5092,5.5087,5.5247,5.5271,5.5151,5.5152,5.5153,0,5.409,5.4155,5.4252,5.4302,5.4347,5.4426,5.4478,5.4523,5.4576,5.4664,5.4712,5.4797,5.4866,5.4996,5.5048,5.5125,5.513,5.5181,5.5142,5.5132,5.5132,5.5128,5.5135,5.5188,5.5189,5.519,5.5191,0,5.4196,5.422,5.4297,5.4384,5.4447,5.4516,5.4584,5.4622,5.4678,5.4736,5.4823,5.4878,5.4984,5.5066,5.5149,5.519,5.52,5.5203,5.522,5.5212,5.5195,5.5206,5.5058,5.5199,5.5198,5.5198,5.5197,5.5197,5.4265,5.4325,5.4403,5.4488,5.4545,5.4609,5.467,5.4719,5.4793,5.4886,5.4907,5.4998,5.5068,5.518,5.5224,5.5295,5.5284,5.5307,5.5314,5.5319,5.5322,5.5184,5.5309,5.5309,5.5309,5.5309,5.5309,0,5.4373,5.4425,5.4504,5.4601,5.4668,5.4675,5.4751,5.4805,5.4887,5.4953,5.5023,5.5122,5.5203,5.5262,5.5344,5.5389,5.5395,5.5409,5.5406,5.5416,5.5326,5.5304,5.5402,5.5402,5.5402,5.5402,5.5402,5.5402,5.4437,5.4539,5.4572,5.4701,5.4752,5.4845,5.4888,5.4946,5.5,5.5111,5.518,5.522,5.5283,5.537,5.5444,5.5459,5.5488,5.5502,5.5517,5.5432,5.5422,5.5412,5.5392,5.5507,5.5508,5.5601,5.5602,5.5603]}]]